Location: Doon Cross Road
(53.3303°N, 7.8189°W)
Time: 05:34:11
(UTC+00:00)

Daily predictions for brighter satellites

Satellite Brightness Start Highest point End
(mag) Time Altitude Azimuth Time Altitude Azimuth Time Altitude Azimuth
Cosmos 1758 Rocket 3.8 00:02:25 10° N 00:06:37 58° ENE 00:06:37 58° ENE
Cosmos 1624 Rocket 3.8 00:06:04 69° SSW 00:06:44 90° NW 00:11:57 10° NNE
Cosmos 1603 4.4 00:04:46 23° WSW 00:08:05 51° NW 00:13:39 10° NNE
ATLAS 2AS CENTAUR R/B 2.8 00:09:46 49° SSE 00:10:51 54° SE 00:17:27 10° NE
Helios 1B rocket 4.4 00:13:20 15° WNW 00:13:20 15° WNW 00:14:56 10° NW
Cosmos 1782 3.5 00:16:32 46° N 00:16:32 46° N 00:19:08 10° N
Meteor 1-20 Rocket 4.3 00:11:33 10° N 00:17:00 66° ENE 00:18:03 54° SE
ALOS 2 3.2 00:20:07 47° W 00:20:07 47° W 00:24:11 10° NNW
Meteor 1-22 4.4 00:15:23 10° NNW 00:20:46 85° ENE 00:21:31 67° SSE
SeaSat 1 3.6 00:21:51 30° WSW 00:21:51 30° WSW 00:25:55 10° NW
Cosmos 1980 Rocket 2.3 00:16:56 10° NNW 00:22:40 70° NE 00:24:19 46° ESE
Cosmos 1110 Rocket 4.1 00:23:00 59° ESE 00:23:15 59° ESE 00:28:29 10° NNE
ARIANE 5 R/B 3.7 00:27:01 33° W 00:27:01 33° W 00:30:47 10° NNW
USA 234 3.6 00:23:22 10° ENE 00:29:50 66° N 00:36:19 10° W
PSLV R/B 3.6 00:26:46 10° N 00:30:44 71° NW 00:30:44 71° NW
Cosmos 2369 4.4 00:28:16 10° NNW 00:33:50 51° NE 00:36:37 28° ESE
Cosmos 292 Rocket 4.2 00:30:02 10° NW 00:34:25 49° W 00:34:25 49° W
Cosmos 1602 Rocket 3.6 00:32:12 10° N 00:36:24 68° ENE 00:36:24 68° ENE
Cosmos 2233 Rocket 4.4 00:39:26 39° SW 00:41:28 54° WNW 00:47:36 10° N
Cosmos 968 Rocket 4.3 00:44:05 10° NW 00:48:45 36° WSW 00:48:45 36° WSW
Cosmos 2360 Rocket 4.3 00:44:19 10° NNW 00:48:57 25° NE 00:53:35 10° E
Cosmos 2333 Rocket 3.7 00:45:15 10° NNW 00:50:22 33° NE 00:55:29 10° ESE
Cosmos 2228 3.8 00:51:27 41° WNW 00:51:28 41° WNW 00:55:26 10° N
Cosmos 1933 3.7 00:53:32 55° NE 00:53:32 55° NE 00:56:40 10° NNE
Cosmos 1741 Rocket 4.3 00:47:49 10° NNW 00:52:59 52° WSW 00:53:07 52° WSW
Cosmos 1805 4.2 00:50:54 10° N 00:53:08 37° NNE 00:53:08 37° NNE
ARGOS Delta rocket 4.0 00:50:49 10° N 00:55:14 57° WNW 00:55:38 54° W
USA 281 4.2 00:51:45 10° ESE 00:57:55 45° NE 01:04:05 10° NNW
Cosmos 1626 Rocket 4.3 00:54:51 10° NNW 00:58:29 40° WNW 00:58:29 40° WNW
Cosmos 1452 Rocket 3.3 00:58:56 68° SSE 00:59:29 77° ESE 01:04:45 10° NNE
Cosmos 2082 Rocket 3.1 00:59:24 33° ESE 01:00:09 34° ESE 01:05:15 10° NE
Cosmos 1833 Rocket 2.8 01:00:04 48° WSW 01:01:33 69° NW 01:07:11 10° NNE
Nadezhda 4 Rocket 3.8 00:56:20 10° NNW 01:02:32 86° W 01:04:04 54° S
Landsat 5 3.5 00:59:38 10° NNE 01:03:47 79° ENE 01:03:47 79° ENE
Cosmos 2098 Rocket 3.7 01:03:15 57° SSE 01:04:20 73° E 01:09:55 10° NNE
Cosmos 2322 Rocket 4.0 00:59:38 10° NNW 01:04:33 30° NE 01:09:28 10° E
Cosmos 1867 3.4 01:06:15 64° S 01:06:53 72° SE 01:12:20 10° NE
Cosmos 1464 Rocket 3.9 01:13:31 53° SSW 01:15:06 88° W 01:21:17 10° N
CZ-2C R/B 3.3 01:10:14 10° N 01:15:23 63° WNW 01:16:33 50° WSW
ACS3 Solar Sail 2.4 01:10:44 10° NNE 01:16:32 46° E 01:18:33 35° SE
Cosmos 1606 Rocket 3.6 01:18:01 65° ESE 01:18:10 66° E 01:22:33 10° NNE
Cosmos 2219 Rocket 4.3 01:13:41 10° NNW 01:18:20 25° NE 01:22:58 10° E
SL-16 R/B 3.0 01:14:29 10° NNW 01:20:02 50° NE 01:24:53 13° ESE
Cosmos 2195 Rocket 4.4 01:13:52 10° N 01:20:15 90° ENE 01:22:15 47° S
Okean 1-7 Rocket 3.5 01:16:54 10° NNW 01:21:12 72° W 01:21:12 72° W
Cosmos 1437 Rocket 3.2 01:22:27 51° N 01:22:27 51° N 01:25:09 10° NNE
CZ-4C R/B 2.6 01:22:06 36° ESE 01:22:06 36° ESE 01:26:52 10° NE
Cosmos 1072 Rocket 4.4 01:20:23 50° SSW 01:22:02 76° WNW 01:28:16 10° N
GP-B 3.7 01:18:35 10° NNE 01:22:49 46° E 01:23:25 43° ESE
Timation 1 Rocket 4.3 01:23:15 52° SW 01:24:52 89° WNW 01:30:56 10° NE
ATLAS 3B R/B 3.1 01:20:07 10° NW 01:27:35 51° WSW 01:29:24 43° SSW
Cosmos 2151 4.2 01:24:54 10° NNW 01:28:00 29° WNW 01:28:00 29° WNW
CZ-2C R/B 3.3 01:30:23 38° WSW 01:30:54 39° W 01:35:58 10° NNW
Cosmos 1076 Rocket 3.3 01:28:26 10° NNW 01:32:48 89° W 01:32:57 84° S
Cosmos 2026 Rocket 3.9 01:26:34 10° N 01:32:51 88° W 01:35:02 45° S
Cosmos 2058 Rocket 4.1 01:32:04 33° ESE 01:32:53 36° E 01:36:54 10° NNE
Cosmos 2237 4.1 01:30:31 10° NW 01:36:17 79° WSW 01:38:02 46° SSE
Okean 1 3.4 01:37:01 58° NE 01:37:01 58° NE 01:40:04 10° NNE
Cosmos 2034 Rocket 4.0 01:34:39 47° S 01:36:42 90° ESE 01:43:08 10° N
Cosmos 909 Rocket 4.3 01:37:59 43° S 01:39:42 56° ESE 01:45:56 10° NE
Cosmos 1302 Rocket 3.9 01:41:05 57° SW 01:42:08 81° WNW 01:47:20 10° NNE
PSLV R/B 3.8 01:39:57 10° NNE 01:43:44 69° E 01:43:44 69° E
Cosmos 1726 Rocket 3.3 01:44:06 78° S 01:44:22 86° E 01:48:36 10° NNE
Cosmos 1697 Rocket 4.4 01:41:51 10° WNW 01:45:05 18° W 01:45:05 18° W
Cosmos 1992 Rocket 4.0 01:45:03 53° S 01:46:09 69° ESE 01:51:21 10° NNE
Cosmos 1536 3.1 01:42:57 10° N 01:46:32 51° ENE 01:46:48 49° E
Cosmos 1092 Rocket 3.9 01:40:23 10° NNW 01:46:34 83° W 01:48:43 43° S
DELTA 2 DEB (DPAF) 4.2 01:43:07 10° N 01:46:21 49° NW 01:46:21 49° NW
NOSS 3-4 (A) 4.4 01:43:22 10° NW 01:49:29 52° NNE 01:56:43 10° ESE
NOSS 3-4 (C) 4.5 01:43:54 10° NW 01:50:03 52° NNE 01:57:17 10° ESE
Meteor 1-26 Rocket 4.3 01:51:49 42° SSE 01:53:30 64° E 01:58:51 10° NNE
IDEFIX/ARIANE 42P 3.3 01:50:28 10° NNE 01:55:26 44° E 01:57:22 31° SSE
Cosmos 1766 3.3 01:54:23 10° N 01:57:04 57° NNE 01:57:04 57° NNE
Cosmos 1953 Rocket 3.5 01:54:34 10° NNW 01:58:59 62° W 01:59:18 60° WSW
Cosmos 2084 Rocket 4.2 01:56:09 10° NW 02:00:16 51° NNE 02:04:24 10° ESE
ATLAS 2AS CENTAUR R/B 3.2 01:57:07 21° WSW 02:01:49 57° NNW 02:08:31 10° NE
Cosmos 1707 3.2 02:03:05 40° NE 02:03:05 40° NE 02:05:16 10° NNE
Cosmos 1980 Rocket 3.3 02:01:32 10° NW 02:06:02 26° W 02:06:02 26° W
Cosmos 1975 3.9 02:05:37 10° N 02:09:01 35° ENE 02:10:36 24° ESE
Cosmos 44 Rocket 3.6 02:08:21 46° S 02:09:32 60° SE 02:14:39 10° NE
USA 234 3.3 02:06:08 10° ESE 02:12:41 81° NNE 02:19:15 10° WNW
COSMOS 2406 3.5 02:14:30 36° S 02:16:40 60° ESE 02:22:21 10° NE
MSX 4.0 02:11:21 10° NNE 02:17:06 65° ESE 02:19:47 32° S
Cosmos 2369 4.2 02:12:40 10° NW 02:17:52 38° WSW 02:18:29 37° WSW
CZ-2D R/B 4.1 02:15:51 10° NE 02:19:51 21° E 02:23:50 10° SE
SL-08 ROCKET BODY 4.3 02:14:42 10° NNW 02:20:43 78° W 02:23:39 32° S
Cosmos 2084 3.7 02:22:01 42° W 02:23:09 60° NW 02:27:16 10° NE
Cosmos 1634 Rocket 3.9 02:20:35 37° SSW 02:23:11 75° WNW 02:29:23 10° N
ADEOS Rocket 4.0 02:15:48 10° NNE 02:23:13 56° E 02:28:49 20° S
Spot 1 4.1 02:20:11 10° N 02:24:13 60° WNW 02:25:03 48° WSW
Cosmos-2242 3.0 02:28:29 51° SW 02:29:16 62° WNW 02:33:26 10° N
Cosmos 724 4.3 02:27:46 36° SW 02:30:23 85° SE 02:36:21 10° NE
Cosmos 1354 Rocket 4.3 02:26:13 10° NNW 02:31:31 68° ENE 02:36:45 10° SE
Cosmos 1503 Rocket 3.9 02:27:36 10° NNW 02:32:56 89° WSW 02:37:00 17° SSE
Cosmos 220 Rocket 4.3 02:32:09 38° SSE 02:33:14 50° ESE 02:37:10 10° NE
Cosmos 2360 Rocket 2.2 02:28:05 10° NNW 02:33:49 81° ENE 02:39:30 10° SE
Cosmos 1607 3.9 02:31:28 35° SSW 02:34:15 76° SE 02:40:32 10° NE
Cosmos 2333 Rocket 2.1 02:29:27 10° NW 02:35:05 67° WSW 02:38:59 20° SSE
FENGYUN 3A 3.8 02:29:57 10° NNE 02:35:23 68° ESE 02:38:13 29° S
Cosmos 1842 2.8 02:35:26 62° SE 02:35:43 67° E 02:38:53 10° NNE
USA 305 4.4 02:38:24 11° ENE 02:38:24 11° ENE 02:38:30 10° ENE
USA 281 3.3 02:38:17 23° S 02:42:20 55° WSW 02:48:48 10° NW
Cosmos 2082 Rocket 2.6 02:41:13 29° WSW 02:44:00 56° NW 02:49:40 10° NNE
Cosmos 540 Rocket 4.5 02:41:18 20° SSE 02:44:20 39° ESE 02:49:07 10° NE
Cosmos 2221 2.6 02:43:58 32° SSE 02:45:43 65° E 02:49:49 10° NNE
Cosmos 1486 Rocket 4.2 02:42:34 10° NW 02:47:36 50° WSW 02:49:47 31° SSW
Meteor 2-2 Rocket 4.4 02:45:41 32° SW 02:48:13 62° WNW 02:53:50 10° N
NPP 3.6 02:43:06 10° NNE 02:48:33 86° ESE 02:51:27 29° SSW
Meteor 2-9 Rocket 4.0 02:43:14 10° NNW 02:48:36 80° W 02:52:07 22° S
Cosmos 2278 3.7 02:43:03 10° NW 02:48:41 59° WSW 02:52:56 18° S
Resurs 1-4 Rocket 3.3 02:43:54 10° NNE 02:48:50 38° E 02:53:19 12° SSE
Cosmos 2322 Rocket 2.1 02:43:30 10° NW 02:49:10 77° WSW 02:54:48 10° SSE
BREEZE-M DEB (TANK) 2.8 02:50:13 44° S 02:50:13 44° S 02:54:56 10° E
DNEPR-1 R/B 4.2 02:46:37 10° NW 02:51:45 81° NE 02:58:00 10° SE
Cosmos 2279 Rocket 4.0 02:48:32 29° SSW 02:51:48 67° WNW 02:58:04 10° N
Cosmos 1777 Rocket 4.2 02:53:05 10° NW 02:58:08 48° WSW 03:00:46 26° SSW
ACS3 Solar Sail 2.4 02:53:18 10° N 02:58:54 42° WNW 03:02:06 24° WSW
GP-B 4.4 02:56:05 10° NNW 02:59:36 24° WNW 03:00:35 22° W
Cosmos 1271 Rocket 2.4 03:01:02 38° S 03:02:15 77° ESE 03:05:44 10° NNE
H-2A R/B 3.4 02:58:16 10° NNE 03:02:57 35° E 03:07:43 10° SSE
Cosmos 2219 Rocket 2.2 02:57:24 10° NNW 03:03:05 84° ENE 03:08:45 10° SSE
SL-16 R/B 2.7 02:58:49 10° NW 03:04:02 38° WSW 03:06:39 25° SSW
SL-4 R/B 2.8 03:05:08 29° S 03:05:08 29° S 03:07:44 10° SE
NOSS 3-3 (A) 3.8 03:01:35 28° SW 03:04:32 79° SE 03:11:00 10° NE
Meteor 1-11 Rocket 3.8 02:59:41 10° NNW 03:05:38 86° WSW 03:11:26 10° S
Meteor 1-19 Rocket 4.2 03:04:31 22° S 03:08:12 83° ESE 03:13:51 10° NNE
Cosmos 1470 2.9 03:06:03 10° NNW 03:09:11 38° W 03:09:29 37° WSW
CZ-4C R/B 2.4 03:06:59 22° WSW 03:09:54 55° NNW 03:15:49 10° NE
NOAA 11 4.2 03:04:32 10° NNE 03:10:00 82° ESE 03:13:49 20° SSW
Cosmos 2180 Rocket 4.5 03:06:54 24° SSW 03:10:45 68° WNW 03:16:57 10° N
Cosmos 2058 Rocket 4.1 03:09:11 25° WSW 03:10:46 31° WNW 03:14:44 10° N
Meteor 1-14 Rocket 4.4 03:05:56 10° NNW 03:11:31 52° W 03:15:07 21° SSW
USA 290 3.5 03:10:18 22° SSE 03:11:46 34° ESE 03:14:41 10° NE
KORONAS-FOTON 4.4 03:11:46 29° W 03:12:22 32° WNW 03:15:27 10° N
Meteor 1-10 Rocket 4.3 03:11:32 18° S 03:15:54 81° E 03:21:45 10° NNE
USA 267 3.7 03:10:29 10° ENE 03:16:51 50° SE 03:21:22 20° SSW
Cosmos 2266 Rocket 4.1 03:13:05 10° NNW 03:19:03 55° W 03:23:39 17° SSW
Gbstr 26 Del rocket 3.3 03:19:26 31° SW 03:19:49 32° SSW 03:23:09 10° SE
NOSS 3-3 (C) 3.8 03:17:53 24° SW 03:21:20 84° SE 03:27:54 10° NE
Cosmos 1536 4.4 03:19:06 10° NW 03:21:19 16° W 03:21:19 16° W
Cosmos 372 Rocket 4.0 03:22:27 10° NNW 03:27:40 85° ENE 03:32:48 10° SSE
Cosmos 1812 Rocket 3.6 03:26:34 23° SSW 03:29:08 63° WNW 03:33:28 10° N
Cosmos 2333 4.3 03:24:14 10° NW 03:29:42 53° WSW 03:35:14 10° S
ISS -1.1 03:29:47 10° SSE 03:30:39 11° SE 03:31:33 10° ESE
DMSP B5D2-2 4.1 03:26:09 12° S 03:30:52 56° W 03:36:00 10° NNW
Cosmos 1655 Rocket 3.9 03:28:23 10° NNW 03:34:38 79° W 03:40:50 10° S
IDEFIX/ARIANE 42P 3.4 03:30:07 10° N 03:34:49 36° WNW 03:38:04 18° WSW
Cosmos 1707 4.4 03:34:45 11° WNW 03:35:08 11° WNW 03:36:11 10° NW
BREEZE-M DEB (TANK) 4.3 03:31:26 15° SSW 03:35:15 22° SSE 03:38:14 10° ESE
COSMOS 2441 4.5 03:30:50 10° N 03:35:33 60° WNW 03:38:53 19° SW
JB-3 4.2 03:32:12 10° SSE 03:35:47 77° ENE 03:39:24 10° N
Envisat 3.0 03:32:02 10° NNE 03:37:09 87° WNW 03:41:31 14° SSW
SWARM A 4.2 03:34:27 10° N 03:37:40 60° W 03:39:44 20° SSW
Cosmos 2084 Rocket 3.9 03:35:04 10° WNW 03:38:54 35° SW 03:42:47 10° SSE
Meteor 2-20 Rocket 4.4 03:33:06 11° S 03:39:01 90° S 03:44:58 10° NNE
Aureole 1 Rocket 3.1 03:35:17 10° NNW 03:39:16 60° WSW 03:44:14 10° S
Meteor 2-4 Rocket 4.0 03:35:02 10° S 03:40:19 63° E 03:45:37 10° NNE
NOSS 3-4 (A) 3.8 03:34:09 10° NW 03:40:40 63° SW 03:48:21 10° SSE
NOSS 3-4 (C) 3.8 03:34:41 10° NW 03:41:14 64° SW 03:48:56 10° SSE
Cosmos 1975 3.9 03:40:57 10° NW 03:43:49 22° W 03:44:51 19° WSW
H-2A R/B 2.4 03:41:22 14° S 03:44:13 46° W 03:47:41 10° NNW
Iridium 4 Rocket 3.5 03:42:31 16° SSW 03:46:12 55° W 03:51:17 10° N
Cosmos 44 Rocket 4.4 03:46:54 13° W 03:51:14 40° NNW 03:56:09 10° NE
ADEOS II 2.2 03:46:06 10° NNE 03:51:21 77° ESE 03:56:35 10° SSW
Cosmos 1842 Rocket 4.2 03:47:17 10° S 03:51:28 56° E 03:55:43 10° NNE
BREEZE-M DEB (TANK) 3.6 03:49:45 18° WSW 03:51:51 32° SSW 03:58:55 10° SE
Meteor 1-27 Rocket 3.8 03:45:56 10° SSW 03:51:51 84° WNW 03:57:49 10° NNE
BREEZE-M DEB (TANK) 2.4 03:46:56 10° W 03:52:07 76° S 03:54:26 10° E
Cosmos 1238 Rocket 1.9 03:50:21 17° SSW 03:52:28 77° WNW 03:55:32 10° N
ALOS 2.2 03:48:38 10° NNE 03:53:12 79° WNW 03:57:33 11° SSW
ATLAS 2AS CENTAUR R/B 4.0 03:47:44 10° WNW 03:53:58 35° N 04:00:09 10° ENE
USA 234 3.4 03:49:37 10° SE 03:55:58 53° SW 04:02:22 10° WNW
Cosmos 1763 Rocket 3.8 03:53:11 16° SW 03:57:24 58° WNW 04:02:40 10° NNE
CZ-2D R/B 2.1 03:55:06 10° NNE 04:00:22 74° WNW 04:05:39 10° SSW
Sich 1 3.2 03:56:51 10° N 04:01:02 72° ENE 04:05:09 10° SSE
COSMOS 2406 4.2 03:56:31 12° WSW 04:01:17 36° NW 04:06:36 10° NNE
USA 305 0.9 04:00:35 16° WNW 04:01:56 48° N 04:03:03 10° ENE
Okean 3 Rocket 3.9 03:57:34 10° N 04:02:01 72° ENE 04:06:29 10° SSE
COSMOS 2428 2.8 03:56:38 10° NNW 04:02:24 83° ENE 04:08:07 10° SSE
Cosmos 1758 4.2 03:59:08 10° N 04:02:41 47° ENE 04:06:12 10° SSE
Cosmos 841 Rocket 4.2 03:59:51 10° S 04:04:50 53° ESE 04:09:54 10° NNE
SL-16 R/B 2.7 04:00:24 10° SSE 04:06:40 84° ENE 04:12:59 10° NNW
ADEOS Rocket 4.1 04:01:30 10° N 04:08:31 46° WNW 04:15:45 10° SW
Cosmos 1898 Rocket 3.5 04:03:56 10° NNW 04:09:03 62° WSW 04:14:07 10° S
Cosmos 1805 Rocket 4.4 04:06:26 10° N 04:10:48 56° ENE 04:15:06 10° SSE
Cosmos 1937 Rocket 3.4 04:08:17 10° NNW 04:13:32 75° WSW 04:18:39 10° SSE
Cosmos 2360 Rocket 3.4 04:12:56 10° NW 04:17:10 22° WSW 04:21:24 10° SSW
Cosmos 2333 Rocket 3.9 04:15:43 10° WNW 04:18:19 13° W 04:20:55 10° SW
H-2A R/B 2.8 04:16:33 10° NNE 04:20:30 49° E 04:24:21 10° S
SL-19 R/B 4.4 04:16:39 10° NNE 04:22:15 69° WNW 04:28:08 10° SSW
Cosmos 2221 4.2 04:20:22 10° WSW 04:23:11 17° WNW 04:26:00 10° NNW
Meteor 2-10 Rocket 3.5 04:18:52 10° NNW 04:23:54 61° W 04:29:03 10° S
Cosmos 540 Rocket 4.1 04:21:00 10° SW 04:25:49 41° NW 04:30:43 10° NNE
Meteor 1-18 Rocket 4.4 04:20:21 10° S 04:25:54 81° E 04:31:29 10° NNE
Resurs 1-4 Rocket 2.7 04:23:40 10° N 04:28:41 43° WNW 04:33:39 10° SW
Cosmos 2082 Rocket 4.1 04:25:12 10° WNW 04:29:20 20° NNW 04:33:30 10° NNE
Cosmos 1340 Rocket 4.1 04:26:46 10° N 04:30:21 43° ENE 04:33:58 10° SE
In-Cosmos 22 4.5 04:26:07 10° S 04:31:21 69° E 04:36:45 10° NNE
Cosmos 2322 Rocket 3.7 04:29:00 10° WNW 04:32:17 16° W 04:35:33 10° SW
Cosmos 468 Rocket 4.3 04:27:08 10° SW 04:32:20 58° WNW 04:37:36 10° NNE
Cosmos 1553 Rocket 4.0 04:27:21 10° SSW 04:33:34 77° WNW 04:39:56 10° N
CZ-2C R/B 3.6 04:29:54 10° NNE 04:34:35 44° E 04:39:06 10° S
Cosmos 1709 Rocket 4.2 04:33:35 10° N 04:39:44 76° ENE 04:45:51 10° SSE
ACS3 Solar Sail 3.8 04:38:08 10° NNW 04:39:50 11° NW 04:41:33 10° WNW
BREEZE-M DEB (TANK) 4.0 04:34:28 10° WNW 04:43:01 32° SW 04:46:17 10° SSE
